Location: Ostrava
(49.8330°N, 18.2830°E)
Time: 19:35:17
(UTC+02:00)

Iridium 7 - Visible Passes

Search period start: 19 April 2014 00:00
Search period end: 29 April 2014 00:00
Orbit: 776 x 779 km, 86.4° (Epoch: 19 April)

Date Brightness Start Highest point End Pass type
(mag) Time Alt. Az. Time Alt. Az. Time Alt. Az.
19 Apr 8.0 02:36:27 10° NNE 02:40:04 19° ENE 02:43:39 10° ESE visible
19 Apr 5.5 04:16:10 10° N 04:21:23 71° W 04:26:33 10° S visible
20 Apr 8.4 02:04:34 10° NE 02:06:03 11° ENE 02:07:32 10° E visible
20 Apr 5.8 03:42:38 10° N 03:47:51 69° E 03:53:01 10° SSE visible
21 Apr 6.7 03:09:16 10° N 03:14:11 41° ENE 03:19:05 10° SSE visible
21 Apr 6.4 04:50:15 10° NNW 04:54:47 31° W 04:59:17 10° SW visible
22 Apr 7.5 02:36:08 10° NNE 02:40:24 25° ENE 02:44:38 10° SE visible
22 Apr 5.7 04:16:23 10° NNW 04:21:26 52° W 04:26:28 10° SSW visible
23 Apr 8.1 02:03:27 10° NNE 02:06:28 15° ENE 02:09:29 10° ESE visible
23 Apr 5.5 03:42:44 10° N 03:47:59 87° W 03:53:03 11° S visible
24 Apr 6.1 03:09:15 10° N 03:14:23 56° E 03:19:15 11° SSE visible
24 Apr 6.8 04:50:43 10° NNW 04:54:43 23° WNW 04:58:42 10° SW visible
25 Apr 7.0 02:35:58 10° NNE 02:40:41 33° ENE 02:45:22 10° SE visible
25 Apr 6.1 04:16:40 10° NNW 04:21:27 37° W 04:25:56 11° SSW visible
26 Apr 7.7 02:02:58 10° NNE 02:06:50 21° ENE 02:10:41 10° ESE visible
26 Apr 5.5 03:42:53 10° N 03:48:03 64° W 03:52:11 16° SSW visible
27 Apr 8.1 01:30:40 10° NE 01:32:51 12° ENE 01:35:01 10° E visible
27 Apr 5.6 03:09:18 10° N 03:14:32 77° E 03:18:28 18° S visible
27 Apr 7.2 04:51:22 10° NW 04:54:36 17° WNW 04:57:50 10° WSW visible
28 Apr 6.4 02:35:53 10° N 02:40:54 45° E 02:44:47 16° SSE visible
28 Apr 6.6 04:17:02 10° NNW 04:21:24 28° W 04:25:14 12° SW visible
